User: anonymous   Login
Location: Fontevrault
(47.1823°N, 0.0493°E)
Time: 11:18:16
(UTC+00:00)
Language:

GEOS 3 Rocket - Orbit

View from above orbital plane
View from above orbital plane
View from above satellite
View from above satellite

Ground track
Ground track

The orbit data is extracted from the following two-line orbital elements,

1 07735U 75027B   21265.64878661 -.00000127  00000-0  22004-4 0  9998
2 07735 114.9727 185.4959 0035946 183.6106 176.4719 14.24649484412163
Epoch (UTC): 22 September 2021 15:34:15
Eccentricity: 0.0035946
inclination: 114.9727°
perigee height: 784 km
apogee height: 835 km
right ascension of ascending node: 185.4959°
argument of perigee: 183.6106°
revolutions per day: 14.24649484
mean anomaly at epoch: 176.4719°
orbit number at epoch: 41216

The dashed part of the orbit path shows where the satellite is in the earth's shadow,  

DLR